MET'MAP v2.0
soon released !

Expected late october,
this new version will be
more efficient, smarter,
and hosted on a brand new
server x3 powerfull...
...and still free !


Not compatible ?
Try the mobile version !

LOG IN : | Subscribe | Disclaimer | Who is Orbifly ? |
ICAO code :

TAF - LFBG Cognac - 05 Jun 2020 09:34 UTC
Data Sources :     NOAA   


- Airport Elevation : 102 ft
- IATA code : CNG
- No reported NOTAMs.


LFBG - Cognac

Latest METAR recorded : 2020/06/05 07:00 LFBG 050700Z AUTO 23011KT 9999 DZ BKN009 OVC013 15/13 Q1008 TEMPO 3000 RA BKN012 BKN018
NO TAF


MET'MAP, your aeronautical weather chart ! - Copyright ORBIFLY December 2007

Programming & Development : Alexandra Zaïnal
Co-Developer : Marc-Olivier Méhu
Technical & hardware support : Manuel Goepfert
Concept & Financing : Baudouin d'Aumeries